Location: Radford
(37.1320°N, 80.5770°W)
Time: 01:34:19
(UTC-04:00)

Daily predictions for brighter satellites

Satellite Brightness Start Highest point End
(mag) Time Altitude Azimuth Time Altitude Azimuth Time Altitude Azimuth
BREEZE-M DEB (TANK) 3.6 00:02:24 53° WNW 00:02:52 58° NNW 00:10:27 10° NE
Meteor 2-3 Rocket 3.6 00:08:52 76° ESE 00:08:58 76° E 00:14:41 10° NNE
Cosmos 1869 Rocket 4.3 00:10:53 49° WNW 00:10:53 49° WNW 00:14:59 10° N
Cosmos 2184 Rocket 3.8 00:10:25 70° SE 00:10:51 73° E 00:17:01 10° N
Cosmos 2263 Rocket 4.1 00:13:16 17° ENE 00:13:16 17° ENE 00:15:24 10° ENE
COS B Rocket 4.3 00:09:51 10° N 00:13:01 48° NW 00:13:01 48° NW
USA 238 DEB 3.8 00:10:01 10° NNW 00:17:02 68° NE 00:18:31 54° ESE
USA 238 3.9 00:10:07 10° NNW 00:17:08 67° NE 00:18:37 54° ESE
CZ-4C R/B 3.8 00:10:35 10° NNW 00:17:12 40° NE 00:20:27 28° E
FALCON 9 R/B 2.9 00:01:37 10° W 00:19:53 65° SSW 00:20:47 60° SSE
Okean 1-7 4.1 00:22:33 10° NNW 00:25:40 40° NW 00:25:40 40° NW
SL-16 R/B 3.1 00:27:28 10° NW 00:32:32 38° WSW 00:32:32 38° WSW
CZ-2C R/B 4.4 00:28:58 10° NE 00:31:22 18° ENE 00:31:22 18° ENE
ALOS 2 3.8 00:34:30 38° NNE 00:34:30 38° NNE 00:37:38 10° N
SL-08 ROCKET BODY 4.3 00:35:15 77° SW 00:35:37 81° W 00:41:48 10° N
Cosmos 2227 4.4 00:35:53 59° W 00:36:21 62° WNW 00:41:59 10° NNE
SeaSat 1 2.8 00:40:22 60° NNE 00:40:22 60° NNE 00:44:45 10° NNW
ASTEX 1 3.9 00:39:44 10° N 00:43:37 55° NNE 00:43:37 55° NNE
Lacrosse 4 Rocket 3.8 00:43:28 10° WNW 00:45:16 18° W 00:45:16 18° W
Cosmos 2251 Rocket 3.8 00:41:38 10° NNW 00:46:13 63° NW 00:46:13 63° NW
Cosmos 921 Rocket 4.4 00:48:52 34° NNE 00:48:52 34° NNE 00:51:18 10° NNE
Cosmos 494 Rocket 4.2 00:45:58 10° NNW 00:50:33 67° N 00:50:33 67° N
Cosmos 1943 3.8 00:47:36 10° N 00:53:05 47° ENE 00:53:11 47° ENE
Terra 4.3 00:53:15 11° W 00:53:15 11° W 00:54:28 10° WNW
CZ-4B R/B 4.1 01:03:41 20° N 01:03:41 20° N 01:04:48 10° N
Cosmos 1607 3.8 00:57:02 10° NNW 01:02:59 83° NW 01:02:59 83° NW
Cosmos 1603 4.2 01:01:36 10° NNW 01:06:22 49° WNW 01:06:22 49° WNW
NOSS 3-4 (A) 3.4 01:10:42 88° SW 01:10:47 89° NW 01:17:21 10° NNE
NOSS 3-4 (C) 3.4 01:10:49 89° SSW 01:10:52 90° E 01:17:26 10° NNE
NOSS 3-2 (A) 4.1 01:04:10 10° NNW 01:11:44 69° NE 01:13:46 52° ESE
Cosmos 1867 4.3 01:08:37 10° NNW 01:13:53 46° NE 01:14:04 45° ENE
Nadezhda 3 Rocket 3.9 01:10:16 10° N 01:16:28 78° W 01:16:28 78° W
Meteor 1-27 Rocket 3.8 01:14:25 10° N 01:19:48 75° NNE 01:19:48 75° NNE
CZ-2C R/B 4.1 01:22:43 39° E 01:23:05 40° ENE 01:28:15 10° N
RESURS DK-1 4.2 01:31:17 28° NNE 01:31:17 28° NNE 01:33:20 10° NNE
H-2A R/B 4.2 01:25:30 10° N 01:28:27 30° NW 01:28:27 30° NW
GEOS 3 Rocket 3.8 01:30:20 66° NNW 01:30:20 66° NNW 01:34:47 10° NNW
H-2A ROCKET BODY 4.1 00:52:57 10° W 01:30:23 48° SSW 01:31:07 47° SSW
Helios 1A Rocket 4.5 01:29:09 10° N 01:31:44 35° NNW 01:31:44 35° NNW
Cosmos 1825 4.3 01:41:16 25° N 01:41:16 25° N 01:43:01 10° N
Cosmos 1295 Rocket 4.4 01:41:06 77° W 01:41:09 77° W 01:47:32 10° N
Cosmos 1844 Rocket 4.1 01:51:26 27° E 01:51:26 27° E 01:55:31 10° NE
CZ-3 Stage 3 4.3 01:35:00 10° W 01:52:55 44° SW 01:52:55 44° SW
Cosmos 2263 Rocket 2.6 01:54:57 53° WNW 01:54:57 53° WNW 02:00:31 10° NNE
Cosmos 1371 Rocket 4.3 01:56:39 67° NNW 01:56:39 67° NNW 02:01:23 10° NNE
Cosmos 2056 Rocket 3.8 01:57:32 63° NE 01:57:32 63° NE 02:01:57 10° NNE
CZ-4C R/B 3.3 01:58:59 10° NW 02:05:36 47° WSW 02:05:36 47° WSW
Meteor 2-19 Rocket 4.5 02:07:43 67° ESE 02:07:56 68° E 02:14:04 10° NNE
CZ-2C R/B 3.4 02:08:18 10° N 02:12:53 42° WNW 02:12:53 42° WNW
Iridium 4 Rocket 4.0 02:09:46 10° N 02:14:18 54° ENE 02:14:18 54° ENE
H-2A R/B 4.5 01:05:18 10° W 02:21:34 43° SW 02:22:39 42° SSW
CENTAUR R/B 3.8 02:14:38 10° NNW 02:22:14 50° NE 02:30:13 10° SE
Meteor 2-8 Rocket 4.2 02:16:31 10° N 02:22:37 88° W 02:22:52 83° S
Cosmos 2278 Rocket 3.6 02:22:42 25° ESE 02:22:54 25° ESE 02:27:28 10° NE
Cosmos 909 Rocket 4.4 02:28:46 50° W 02:30:02 59° NW 02:37:15 10° NNE
GP-B 4.5 02:29:22 10° NNE 02:33:12 31° E 02:33:12 31° E
COSMOS 2406 3.1 02:28:58 10° NNW 02:34:47 82° ENE 02:35:08 77° ESE
Cosmos 1339 Rocket 4.3 02:29:04 10° N 02:35:09 77° W 02:35:25 76° WSW
NOSS 3-2 (C) 4.4 02:34:27 10° NW 02:41:26 42° WSW 02:41:26 42° WSW
Cosmos 724 4.3 02:37:43 10° NNW 02:43:53 85° ENE 02:45:03 62° SE
Cosmos 1300 Rocket 4.0 02:45:47 57° NNE 02:45:47 57° NNE 02:49:23 10° N
Okean 1 4.3 02:43:20 10° N 02:46:20 46° NNE 02:46:20 46° NNE
Meteor 1-25 Rocket 4.2 02:49:20 68° WSW 02:49:37 70° W 02:55:25 10° N
NPP 3.9 02:48:07 10° NNE 02:53:26 57° E 02:54:01 54° SE
Cosmos 1461 3.4 02:57:25 64° E 02:57:25 64° E 03:01:35 10° NE
Cosmos 1452 Rocket 3.6 03:02:08 61° W 03:02:18 61° WNW 03:07:32 10° N
Cosmos 1535 Rocket 4.4 03:01:16 62° S 03:02:25 90° W 03:08:44 10° N
CZ-2D R/B 4.3 03:01:01 10° NE 03:04:37 18° E 03:07:34 12° SE
ARIANE 5 R/B 4.2 03:01:59 10° NE 03:05:56 23° E 03:07:41 19° SE
NOSS 2-2 (D) 3.6 03:08:42 71° N 03:08:42 71° N 03:12:58 10° NNE
USA 161 4.4 03:08:36 14° ENE 03:08:48 14° ENE 03:10:30 10° NE
Cosmos 1420 Rocket 3.9 03:09:02 70° SSE 03:09:34 78° ESE 03:14:52 10° NNE
ERS-2 3.0 03:07:41 10° NNE 03:10:43 49° ENE 03:10:43 49° ENE
SL-08 R/B 3.4 03:14:08 60° SE 03:14:58 76° ENE 03:19:52 10° N
Cosmos 1140 Rocket 3.6 03:12:00 10° NNW 03:17:08 70° ENE 03:18:40 45° SE
CBERS-1 3.9 03:12:10 10° NNE 03:17:20 80° ESE 03:18:07 64° S
IRS-1C 4.2 03:16:11 10° NNE 03:21:32 71° ESE 03:22:45 52° SSE
NOSS 2-2 (C) 3.9 03:22:46 53° WNW 03:22:50 53° NW 03:27:24 10° NNE
AQUA 3.7 03:23:29 10° N 03:28:15 79° WNW 03:28:47 68° SW
Cosmos 1934 Rocket 4.0 03:31:35 48° SW 03:33:16 67° W 03:39:24 10° N
Okean 1 Rocket 4.1 03:34:20 33° WNW 03:34:20 33° WNW 03:38:11 10° NNW
Cosmos 1844 Rocket 3.6 03:33:05 32° W 03:34:28 36° WNW 03:39:41 10° N
Resurs 1-4 Rocket 3.4 03:30:37 10° NNE 03:35:25 34° E 03:38:15 20° SSE
ADEOS 3.5 03:33:39 10° NNE 03:38:54 86° ESE 03:40:24 48° S
Meteor 2-15 Rocket 4.4 03:33:44 10° N 03:39:55 83° E 03:43:11 30° SSE
COSMOS 2487 3.0 03:36:49 10° NNW 03:39:43 53° NW 03:39:43 53° NW
Cosmos 1536 2.8 03:44:16 67° W 03:44:23 67° W 03:48:26 10° N
Cosmos 1025 Rocket 2.9 03:41:17 10° N 03:45:35 74° W 03:46:06 64° SSW
Cosmos 1633 2.5 03:45:55 71° NW 03:45:55 71° NW 03:49:22 10° N
Cosmos 1850 Rocket 3.9 03:40:32 10° NNW 03:45:48 84° WSW 03:48:07 35° SSE
Meteor 1-19 Rocket 4.2 03:42:47 10° NNW 03:48:37 73° W 03:51:03 36° S
Cosmos 1741 Rocket 3.9 03:44:48 10° NNW 03:50:05 79° WSW 03:52:25 34° S
ERS-1 4.5 03:46:49 10° NNE 03:52:03 89° E 03:53:58 40° SSW
Centaur D-1A AC-32 4.5 03:52:09 30° SSW 03:54:24 34° S 04:21:42 10° ESE
EO 1 Del DPAF 4.5 03:51:57 17° SE 03:54:38 41° ENE 03:58:18 10° N
ATLAS 5 CENTAUR R/B 2.4 03:48:35 10° NNW 03:54:42 86° ENE 04:01:11 10° SSE
Cosmos 1455 Rocket 3.2 03:53:29 41° SSE 03:54:57 72° E 03:59:24 10° NNE
Okean 2 3.6 03:51:28 10° N 03:55:34 67° E 03:57:15 33° SSE
OAO 3 Copernicus 4.2 03:54:43 45° WSW 03:56:10 68° S 04:01:10 10° E
Cosmos 1153 Rocket 4.5 03:53:41 31° S 03:56:59 90° E 04:03:26 10° N
UNK 3.8 03:53:11 26° WSW 03:58:05 75° NW 04:01:29 10° NE
Atlas Centaur 2 4.4 03:57:55 18° S 04:00:34 21° SSE 04:06:32 10° ESE
Spot 4 Rocket 4.0 03:56:07 10° N 04:01:14 68° WNW 04:03:09 38° SW
Okean O Rocket 3.8 03:58:01 10° NE 04:01:15 20° E 04:04:28 10° SE
Timation 2 Rocket 3.8 03:57:10 10° NNW 04:03:17 88° WSW 04:09:15 10° SSE
PSLV R/B 4.0 04:04:06 39° SE 04:04:06 39° SE 04:07:03 10° E
USA 234 3.2 03:58:09 10° SE 04:04:41 86° SW 04:11:16 10° NW
Cosmos 2278 Rocket 2.9 04:04:33 29° WSW 04:06:42 40° WNW 04:12:02 10° N
Cosmos 614 Rocket 3.9 04:01:41 10° NNW 04:06:46 62° WSW 04:09:11 30° S
Cosmos 2061 Rocket 4.4 04:03:54 17° S 04:08:47 64° E 04:15:07 10° NNE
Cosmos 2297 3.7 04:07:43 34° SSW 04:10:16 75° WNW 04:16:00 10° NNE
UNK 3.9 04:07:48 15° SSE 04:11:33 72° ENE 04:16:12 10° N
CENTAUR R/B 3.5 04:05:38 10° NW 04:12:55 39° WSW 04:18:09 19° SSW
Cosmos 1605 Rocket 4.5 04:12:34 29° SW 04:15:10 43° WNW 04:21:08 10° N
BREEZE-M TANK 1.8 04:19:22 50° WSW 04:19:44 57° SSW 04:23:29 10° SE
IRS-1D 3.4 04:15:08 10° N 04:20:09 71° WNW 04:22:44 28° SSW
Cosmos 1544 Rocket 4.2 04:19:55 32° WSW 04:21:06 38° W 04:25:13 10° N
Meteor 1-23 Rocket 4.4 04:16:01 10° NNW 04:21:32 53° W 04:24:42 24° SSW
Cosmos 1400 Rocket 3.8 04:21:17 28° W 04:21:54 30° WNW 04:25:25 10° NNW
APEX 2.8 04:21:44 48° W 04:22:09 54° WNW 04:25:29 10° NNE
Cosmos 2016 Rocket 4.4 04:19:07 11° S 04:25:11 62° E 04:31:20 10° NNE
Meteor 1-5 Rocket 4.4 04:22:54 26° SSW 04:26:13 62° W 04:31:53 10° N
Cosmos 2082 Rocket 2.3 04:21:58 10° NNW 04:27:42 83° ENE 04:33:24 10° SSE
SL-16 R/B 2.5 04:21:56 10° S 04:28:08 73° WSW 04:34:23 10° NNW
CZ-4B R/B 4.4 04:24:26 10° NNE 04:29:44 39° E 04:34:57 10° SSE
NAVSTAR 52 R/B(PAM-D 4.3 04:32:46 33° ESE 04:32:46 33° ESE 04:34:11 10° E
Cosmos 1174 3.0 04:29:40 10° NNW 04:33:07 77° WSW 04:36:01 11° SSE
SME Rocket 2.9 04:35:30 18° S 04:38:07 60° WSW 04:42:18 10° NNW
USA 161 3.5 04:39:47 16° WNW 04:39:47 16° WNW 04:41:04 10° NW
Cosmos 1486 Rocket 4.5 04:34:10 10° NNW 04:39:28 64° ENE 04:44:45 10° SSE
Cosmos 1110 Rocket 4.4 04:40:08 22° SW 04:43:16 48° WNW 04:48:24 10° N
Cosmos 1500 3.8 04:40:34 12° S 04:44:08 58° E 04:47:58 10° NNE
Cosmos 1743 4.5 04:41:30 10° SSE 04:44:51 30° E 04:48:14 10° NNE
CZ-2D R/B 2.4 04:39:38 10° N 04:44:58 54° WNW 04:48:53 18° SW
ARIANE 5 R/B 3.3 04:40:34 10° N 04:45:06 36° WNW 04:48:01 19° SW
Cosmos 1515 4.3 04:42:22 10° N 04:46:09 57° E 04:49:54 10° SSE
CZ-2D R/B 3.3 04:44:15 10° N 04:48:17 82° W 04:51:33 16° SSW
Cosmos 2173 Rocket 4.1 04:44:25 16° SSW 04:49:16 61° W 04:55:24 10° N
Cosmos 1315 Rocket 4.3 04:51:55 18° WSW 04:53:34 23° WNW 04:56:48 10° NNW
Cosmos 2098 Rocket 3.9 04:52:50 10° SSE 04:56:17 46° E 05:00:38 10° NNE
Cosmos 1346 Rocket 2.8 04:52:44 10° N 04:56:49 88° WSW 05:00:47 10° S
Cosmos 1459 Rocket 4.4 04:55:16 14° SSW 05:00:26 48° W 05:06:29 10° N
Cosmos 2285 Rocket 4.0 04:54:49 11° SSW 05:00:49 86° WNW 05:07:10 10° NNE
BREEZE-M DEB (TANK) 4.2 04:54:38 13° SSW 05:01:31 41° SSE 05:04:33 10° ENE
CZ-2C R/B 3.8 04:57:13 10° SSE 05:01:58 87° WSW 05:06:47 10° NNW
Cosmos 1833 Rocket 2.7 04:57:38 10° NNW 05:03:11 63° WSW 05:08:41 10° S
Cosmos 2084 3.2 05:02:50 15° SSW 05:06:01 78° ESE 05:09:52 10° NE
USA 129 1.7 05:05:05 16° S 05:06:34 51° W 05:08:31 10° NNW
Cosmos 1802 Rocket 4.3 05:02:27 12° SSW 05:07:56 48° W 05:13:52 10° N
Cosmos 1825 Rocket 4.0 05:06:14 10° N 05:10:35 66° E 05:14:57 10° SSE
UNKNOWN OBJECT B 4.0 05:08:19 10° N 05:11:53 29° WNW 05:14:57 13° SW
Thor Agena Rocket 3.6 05:06:51 10° SSE 05:12:01 84° ENE 05:17:09 10° NNW
IRS-1C Rocket 4.2 05:07:27 10° N 05:12:38 60° WNW 05:17:47 10° SSW
Cosmos 1975 3.8 05:10:40 14° SW 05:13:32 30° WNW 05:17:04 10° NNW
Resurs 1-4 Rocket 3.3 05:10:41 10° NNW 05:15:05 27° WNW 05:19:20 11° WSW
Cosmos 1726 Rocket 4.1 05:10:59 10° S 05:15:19 60° E 05:19:40 10° NNE
CZ-4B R/B 3.1 05:16:45 10° N 05:21:16 78° WNW 05:25:37 10° SSW
NOSS 8 (H) 4.5 05:22:43 10° SSW 05:26:09 85° WNW 05:29:50 10° NNE
Cosmos 2058 Rocket 3.5 05:24:15 10° S 05:28:32 64° E 05:32:51 10° NNE
ADEOS II 3.0 05:27:14 10° NNE 05:32:21 49° E 05:37:25 10° S
Meteor 1-21 4.5 05:27:13 10° N 05:32:51 76° E 05:38:25 10° SSE
Okean-O 2.9 05:29:34 10° NNE 05:34:01 75° ESE 05:38:26 10° S
Cosmos 2369 Rocket 2.5 05:29:35 10° SSW 05:35:15 73° ESE 05:40:55 10° NNE
Okean O Rocket 2.6 05:33:49 10° N 05:37:38 30° WNW 05:41:26 10° SW
PSLV R/B 3.7 05:34:28 10° NNE 05:38:41 75° E 05:42:52 10° S
ATLAS 5 CENTAUR R/B 3.9 05:35:29 10° WNW 05:38:50 15° WSW 05:42:15 10° SW
OAO 3 Copernicus 4.4 05:35:37 10° W 05:40:34 58° S 05:45:30 10° ESE
Cosmos 1503 Rocket 4.0 05:35:52 10° NNW 05:41:01 69° WSW 05:46:11 10° S
